Date String (YYYY-MM-DD hh:mm:ss) UTC,Instrument flags,Ambient pressure (hPa),Sample flow (lpm),Bypass flow (lpm),Sample temperature (°C),Ambient temperature (°C),ASC tube jacket temperature (°C),LED temperature (°C),Box temperature (°C),Sample RH (%),Span deviation,Mass concentration (μg/m³),Mass concentration (μg/m³),Mass concentration (μg/m³)
DateTimeUTC,F1_M11,P_M11,Q1_M11,Q2_M11,T1_M11,T2_M11,T3_M11,T4_M11,T5_M11,U1_M11,ZSPAN_M11,X2_M11,X0_M11,X1_M11
2023-04-13 14:00:00,,0817.7,5.00,0.00,28.5,26.8,00.0,36.9,30.0,12.1,0000.0,0004.29,0016.17,0002.64
2023-04-13 14:01:00,,0817.7,5.00,0.00,28.5,26.8,00.0,36.9,30.0,12.2,0000.0,0004.32,0015.75,0002.64
2023-04-13 14:02:00,,0817.8,5.01,0.00,28.5,26.8,00.0,36.9,30.0,12.2,0000.0,0004.38,0014.99,0002.64
2023-04-13 14:03:00,,0817.8,5.00,0.00,28.5,26.8,00.0,36.8,30.0,12.1,0000.0,0004.29,0014.44,0002.62
2023-04-13 14:04:00,,0817.7,5.00,0.00,28.4,26.8,00.0,36.8,30.0,12.0,0000.0,0004.26,0013.83,0002.62
2023-04-13 14:05:00,,0817.8,4.99,0.00,28.4,26.8,00.0,36.8,29.9,12.0,0000.0,0004.29,0014.05,0002.62
2023-04-13 14:06:00,,0817.8,5.00,0.00,28.4,26.7,00.0,36.8,29.9,12.0,0000.0,0004.28,0014.05,0002.63
2023-04-13 14:07:00,,0817.7,4.99,0.00,28.4,26.7,00.0,36.8,29.9,12.0,0000.0,0004.22,0013.72,0002.62
2023-04-13 14:08:00,,0817.8,4.99,0.00,28.4,26.7,00.0,36.8,29.9,12.1,0000.0,0004.21,0013.67,0002.61
2023-04-13 14:09:00,,0817.7,5.00,0.00,28.4,26.7,00.0,36.8,29.9,12.1,0000.0,0004.25,0013.04,0002.62
2023-04-13 14:10:00,,0817.7,5.00,0.00,28.4,26.7,00.0,36.8,29.9,12.2,0000.0,0004.27,0012.51,0002.60
2023-04-13 14:11:00,,0817.8,5.00,0.00,28.4,26.7,00.0,36.8,29.9,12.4,0000.0,0004.31,0011.60,0002.61
2023-04-13 14:12:00,,0817.7,5.01,0.00,28.4,26.6,00.0,36.8,29.8,12.5,0000.0,0004.37,0011.71,0002.59
2023-04-13 14:13:00,,0817.7,5.00,0.00,28.3,26.6,00.0,36.8,29.8,12.6,0000.0,0004.34,0012.13,0002.58
2023-04-13 14:14:00,,0817.7,4.99,0.00,28.3,26.6,00.0,36.8,29.8,12.7,0000.0,0004.33,0012.66,0002.58
2023-04-13 14:15:00,,0817.7,5.00,0.00,28.3,26.6,00.0,36.7,29.8,12.8,0000.0,0004.36,0013.18,0002.59
2023-04-13 14:16:00,,0817.7,4.99,0.00,28.3,26.6,00.0,36.7,29.8,12.8,0000.0,0004.32,0013.87,0002.58
2023-04-13 14:17:00,,0817.7,4.99,0.00,28.3,26.5,00.0,36.7,29.7,12.8,0000.0,0004.29,0014.58,0002.57
2023-04-13 14:18:00,,0817.6,5.00,0.00,28.3,26.5,00.0,36.7,29.7,12.9,0000.0,0004.35,0015.37,0002.57
2023-04-13 14:19:00,,0817.7,5.00,0.00,28.2,26.5,00.0,36.7,29.7,13.0,0000.0,0004.39,0016.33,0002.58
2023-04-13 14:20:00,,0817.7,5.00,0.00,28.2,26.5,00.0,36.7,29.7,13.0,0000.0,0004.41,0016.52,0002.59
2023-04-13 14:21:00,,0817.7,5.00,0.00,28.2,26.4,00.0,36.7,29.7,12.9,0000.0,0004.43,0016.74,0002.59
2023-04-13 14:22:00,,0817.7,5.02,0.00,28.2,26.4,00.0,36.7,29.7,13.0,0000.0,0004.37,0016.16,0002.57
2023-04-13 14:23:00,,0817.6,5.01,0.00,28.2,26.4,00.0,36.7,29.7,13.0,0000.0,0004.31,0016.05,0002.58
2023-04-13 14:24:00,,0817.7,5.00,0.00,28.2,26.4,00.0,36.6,29.7,12.9,0000.0,0004.29,0016.05,0002.59
2023-04-13 14:25:00,,0817.7,5.00,0.00,28.1,26.4,00.0,36.6,29.6,12.9,0000.0,0004.34,0014.94,0002.60
2023-04-13 14:26:00,,0817.6,4.99,0.00,28.1,26.4,00.0,36.6,29.6,12.9,0000.0,0004.36,0014.25,0002.59
2023-04-13 14:27:00,,0817.6,5.00,0.00,28.1,26.4,00.0,36.6,29.6,12.9,0000.0,0004.33,0013.32,0002.60
2023-04-13 14:28:00,,0817.7,5.00,0.00,28.1,26.3,00.0,36.6,29.6,12.9,0000.0,0004.42,0012.80,0002.61
2023-04-13 14:29:00,,0817.6,5.00,0.00,28.1,26.3,00.0,36.6,29.6,12.9,0000.0,0004.45,0012.47,0002.63
2023-04-13 14:30:00,,0817.7,4.99,0.00,28.0,26.3,00.0,36.6,29.5,12.9,0000.0,0004.45,0011.67,0002.64
2023-04-13 14:31:00,,0817.7,5.00,0.00,28.0,26.3,00.0,36.5,29.5,12.8,0000.0,0004.42,0011.52,0002.64
2023-04-13 14:32:00,,0817.7,5.00,0.00,28.0,26.2,00.0,36.5,29.5,12.7,0000.0,0004.35,0011.25,0002.64
2023-04-13 14:33:00,,0817.7,5.01,0.00,28.0,26.2,00.0,36.5,29.5,12.6,0000.0,0004.32,0012.26,0002.62
2023-04-13 14:34:00,,0817.7,5.01,0.00,28.0,26.2,00.0,36.5,29.5,12.6,0000.0,0004.34,0012.82,0002.63
2023-04-13 14:35:00,,0817.7,5.00,0.00,28.0,26.2,00.0,36.5,29.5,12.5,0000.0,0004.33,0012.54,0002.62
2023-04-13 14:36:00,,0817.6,5.00,0.00,28.0,26.2,00.0,36.5,29.5,12.7,0000.0,0004.32,0013.48,0002.61
2023-04-13 14:37:00,,0817.6,5.00,0.00,28.0,26.2,00.0,36.5,29.5,12.8,0000.0,0004.31,0013.91,0002.62
2023-04-13 14:38:00,,0817.6,4.99,0.00,28.0,26.2,00.0,36.4,29.5,12.6,0000.0,0004.39,0014.04,0002.61
2023-04-13 14:39:00,,0817.6,5.00,0.00,27.9,26.2,00.0,36.4,29.4,12.5,0000.0,0004.39,0014.39,0002.61
2023-04-13 14:40:00,,0817.6,5.00,0.00,27.9,26.2,00.0,36.4,29.5,12.6,0000.0,0004.37,0014.54,0002.59
2023-04-13 14:41:00,,0817.6,5.00,0.00,27.9,26.2,00.0,36.4,29.4,12.4,0000.0,0004.31,0014.59,0002.57
2023-04-13 14:42:00,,0817.6,5.01,0.00,27.9,26.2,00.0,36.4,29.4,12.5,0000.0,0004.28,0014.57,0002.55
2023-04-13 14:43:00,,0817.6,5.01,0.00,27.9,26.2,00.0,36.4,29.4,12.4,0000.0,0004.30,0014.38,0002.53
2023-04-13 14:44:00,,0817.6,5.00,0.00,27.9,26.2,00.0,36.4,29.5,12.7,0000.0,0004.29,0014.18,0002.54
2023-04-13 14:45:00,,0817.5,5.00,0.00,27.9,26.2,00.0,36.4,29.5,12.6,0000.0,0004.26,0014.82,0002.52
2023-04-13 14:46:00,,0817.5,4.99,0.00,27.9,26.2,00.0,36.4,29.5,12.5,0000.0,0004.29,0014.78,0002.53
2023-04-13 14:47:00,,0817.6,5.00,0.00,27.9,26.2,00.0,36.4,29.5,12.3,0000.0,0004.26,0014.63,0002.52
2023-04-13 14:48:00,,0817.6,5.00,0.00,27.9,26.3,00.0,36.4,29.5,12.2,0000.0,0004.23,0014.23,0002.51
2023-04-13 14:49:00,,0817.6,5.00,0.00,27.9,26.3,00.0,36.3,29.5,12.2,0000.0,0004.19,0014.16,0002.50
2023-04-13 14:50:00,,0817.6,5.00,0.00,27.9,26.3,00.0,36.3,29.5,12.2,0000.0,0004.09,0013.93,0002.50
2023-04-13 14:51:00,,0817.7,5.00,0.00,27.9,26.3,00.0,36.3,29.5,12.4,0000.0,0004.06,0014.13,0002.52
2023-04-13 14:52:00,,0817.6,5.00,0.00,27.9,26.3,00.0,36.3,29.4,12.4,0000.0,0004.13,0014.03,0002.53
2023-04-13 14:53:00,,0817.6,5.00,0.00,27.9,26.3,00.0,36.3,29.5,12.4,0000.0,0004.16,0014.16,0002.53
2023-04-13 14:54:00,,0817.7,5.01,0.00,27.9,26.3,00.0,36.3,29.5,12.3,0000.0,0004.18,0014.64,0002.54
2023-04-13 14:55:00,,0817.6,5.00,0.00,27.9,26.3,00.0,36.3,29.5,12.2,0000.0,0004.18,0014.80,0002.53
2023-04-13 14:56:00,,0817.7,5.00,0.00,27.9,26.3,00.0,36.3,29.5,12.2,0000.0,0004.16,0013.02,0002.54
2023-04-13 14:57:00,,0817.6,4.99,0.00,27.9,26.3,00.0,36.3,29.5,12.7,0000.0,0004.13,0012.53,0002.54
2023-04-13 14:58:00,,0817.6,4.99,0.00,27.9,26.3,00.0,36.3,29.5,12.5,0000.0,0004.11,0012.00,0002.53
2023-04-13 14:59:00,,0817.6,4.99,0.00,27.9,26.3,00.0,36.3,29.5,12.3,0000.0,0004.06,0011.29,0002.53
